Moses Lake, WA

6:15 PM PDT on July 20, 2017 (GMT -0700)
Grant County International

Weather History for KMWH - February, 2013

Change the Weather History Date:

Saturday, February 23, 2013

  Actual Average Record
Temperature  
Mean Temperature 43 °F 37 °F  
Max Temperature 53 °F 47 °F 55 °F (2005)
Min Temperature 32 °F 28 °F 17 °F (2017)
Degree Days  
Heating Degree Days 22 28  
Month to date heating degree days 635 698  
Since 1 July heating degree days 3989 4372  
Cooling Degree Days 0 0  
Month to date cooling degree days 0 0  
Year to date cooling degree days 0 0  
Moisture  
Dew Point 22 °F    
Average Humidity 47    
Maximum Humidity 64    
Minimum Humidity 30    
Precipitation  
Precipitation 0.00 in 0.02 in 0.34 in (2009)
Month to date precipitation T 0.67  
Year to date precipitation 0.28 1.81  
Sea Level Pressure  
Sea Level Pressure 30.04 in    
Wind  
Wind Speed 10 mph (WSW)    
Max Wind Speed 24 mph    
Max Gust Speed 30 mph    
Visibility 10 miles    
Events      
T = Trace of Precipitation, MM = Missing Value Source: NWS Daily Summary

Daily Weather History Graph

Daily Weather History Graph

Search for Another Location

Airport or City:

Trip Planner

Search our weather history database for the weather conditions in past years. The results will help you decide how hot, cold, wet, or windy it might be!

Date:

Astronomy

Feb. 23, 2013 Rise Set
Actual Time 6:47 AM PST 5:34 PM PST
Civil Twilight 6:16 AM PST 6:05 PM PST
Nautical Twilight 5:41 AM PST 6:40 PM PST
Astronomical Twilight 5:06 AM PST 7:15 PM PST
Moon 3:45 PM PST (2/23) 5:18 AM PST (2/23)
Length of Visible Light 11h 48m
Length of Day
10h 46m
Waxing Gibbous, 96% of the Moon is Illuminated
Feb 23
Waxing Gibbous
Feb 25
Full
Mar 4
Last Quarter
Mar 11
New
Mar 19
First Quarter

Hourly Weather History & Observations

Time (PST) Temp. Windchill Dew Point Humidity Pressure Visibility Wind Dir Wind Speed Gust Speed Precip Events Conditions
12:52 AM 36.0 °F 29.6 °F 19.0 °F 50% 29.80 in 10.0 mi SSW 8.1 mph - N/A   Clear
1:52 AM 35.1 °F 27.9 °F 19.9 °F 54% 29.82 in 10.0 mi SW 9.2 mph - N/A   Clear
2:52 AM 35.1 °F 27.9 °F 21.0 °F 57% 29.84 in 10.0 mi SSW 9.2 mph - N/A   Clear
3:52 AM 34.0 °F 26.6 °F 23.0 °F 64% 29.85 in 10.0 mi WSW 9.2 mph - N/A   Clear
4:52 AM 34.0 °F 25.0 °F 23.0 °F 64% 29.87 in 10.0 mi WSW 12.7 mph - N/A   Clear
5:52 AM 33.1 °F 24.9 °F 23.0 °F 66% 29.88 in 10.0 mi SSW 10.4 mph - N/A   Clear
6:52 AM 33.1 °F 25.5 °F 23.0 °F 66% 29.91 in 10.0 mi SSW 9.2 mph - N/A   Clear
7:52 AM 35.1 °F 27.9 °F 24.1 °F 64% 29.94 in 10.0 mi SSW 9.2 mph - N/A   Clear
8:52 AM 37.9 °F 32.1 °F 26.1 °F 62% 29.97 in 10.0 mi SW 8.1 mph - N/A   Clear
9:52 AM 44.1 °F 40.1 °F 24.1 °F 45% 30.01 in 10.0 mi WSW 6.9 mph - N/A   Clear
10:52 AM 46.9 °F - 21.9 °F 37% 30.02 in 10.0 mi WSW 11.5 mph - N/A   Clear
11:52 AM 48.9 °F - 24.1 °F 38% 30.03 in 10.0 mi SW 5.8 mph - N/A   Clear
12:52 PM 50.0 °F - 23.0 °F 35% 30.03 in 10.0 mi NNW 9.2 mph - N/A   Clear
1:52 PM 52.0 °F - 21.9 °F 31% 30.04 in 10.0 mi NNW 13.8 mph 20.7 mph N/A   Partly Cloudy
2:52 PM 52.0 °F - 21.0 °F 30% 30.07 in 10.0 mi WNW 18.4 mph 27.6 mph N/A   Partly Cloudy
3:52 PM 51.1 °F - 21.0 °F 31% 30.10 in 10.0 mi WNW 17.3 mph 29.9 mph N/A   Mostly Cloudy
4:52 PM 46.9 °F - 21.0 °F 36% 30.12 in 10.0 mi WNW 17.3 mph 21.9 mph N/A   Clear
5:52 PM 43.0 °F 36.8 °F 21.9 °F 43% 30.15 in 10.0 mi West 11.5 mph - N/A   Clear
6:52 PM 39.9 °F 32.5 °F 21.9 °F 49% 30.19 in 10.0 mi WNW 12.7 mph - N/A   Clear
7:52 PM 37.9 °F 30.9 °F 21.9 °F 53% 30.21 in 10.0 mi West 10.4 mph - N/A   Clear
8:52 PM 35.1 °F 29.3 °F 21.9 °F 59% 30.25 in 10.0 mi West 6.9 mph - N/A   Clear
9:52 PM 35.1 °F 27.9 °F 23.0 °F 61% 30.25 in 10.0 mi West 9.2 mph - N/A   Clear
10:52 PM 33.1 °F 26.9 °F 21.9 °F 64% 30.25 in 10.0 mi West 6.9 mph - N/A   Clear
11:52 PM 33.1 °F 26.9 °F 23.0 °F 66% 30.27 in 10.0 mi West 6.9 mph - N/A   Clear